Location: Goettingen
(51.5300°N, 9.9433°E)
Time: 22:24:27
(UTC+01:00)

ISS - Pass Details

Date: 09 November 2019
Orbit: 412 x 421 km, 51.6° (Epoch: 15 November)

Event Time Altitude Azimuth Distance (km) Brightness Sun altitude
Exits shadow 05:46:48 28° 235° (SW) 822 -2.7 -15.7°
Maximum altitude 05:47:29 31° 210° (SSW) 768 -2.7 -15.6°
Drops below altitude 10° 05:50:30 10° 146° (SSE) 1,499 -0.4 -15.1°
Sets 05:52:43 0° 136° (SE) 2,359 0.9 -14.8°
